Location: Kerguer�zec
(48.4509°N, 4.7600°W)
Time: 17:19:47
(UTC+00:00)

Cosmos 540 Rocket - Visible Passes

Search period start: 06 August 2020 00:00
Search period end: 16 August 2020 00:00
Orbit: 740 x 753 km, 74.1° (Epoch: 06 August)

Date Brightness Start Highest point End Pass type
(mag) Time Alt. Az. Time Alt. Az. Time Alt. Az.
06 Aug 5.7 21:22:28 10° N 21:25:13 14° NE 21:27:57 10° ENE visible
06 Aug 3.5 23:02:39 10° NNW 23:07:50 70° ENE 23:08:51 55° ESE visible
07 Aug 5.3 00:45:27 10° NW 00:48:39 18° W 00:48:39 18° W visible
07 Aug 4.3 22:19:26 10° N 22:24:19 40° ENE 22:26:06 30° ESE visible
08 Aug 4.5 00:01:14 10° NW 00:05:49 32° WSW 00:05:54 32° WSW visible
08 Aug 5.0 21:36:24 10° N 21:40:37 24° NE 21:43:22 16° E visible
08 Aug 3.6 23:17:31 10° NNW 23:22:37 60° WSW 23:23:10 56° SW visible
09 Aug 5.5 20:53:43 10° N 20:56:44 15° NE 20:59:45 10° E visible
09 Aug 3.4 22:34:04 10° NNW 22:39:16 77° ENE 22:40:29 53° SE visible
10 Aug 5.4 00:17:05 10° WNW 00:20:12 16° W 00:20:17 16° W visible
10 Aug 4.1 21:50:48 10° NNW 21:55:46 43° ENE 21:57:48 29° ESE visible
10 Aug 4.7 23:32:44 10° NW 23:37:11 30° W 23:37:37 29° WSW visible
11 Aug 4.8 21:07:45 10° N 21:12:05 26° NE 21:15:09 16° E visible
11 Aug 3.8 22:48:58 10° NNW 22:54:00 54° WSW 22:54:58 47° SW visible
12 Aug 5.4 20:24:58 10° N 20:28:14 16° NE 20:31:29 10° E visible
12 Aug 3.4 22:05:28 10° NNW 22:10:41 84° ENE 22:12:21 45° SSE visible
12 Aug 5.6 23:48:46 10° WNW 23:51:33 15° W 23:52:09 14° WSW visible
13 Aug 3.9 21:22:11 10° NNW 21:27:12 47° ENE 21:29:45 26° ESE visible
13 Aug 4.9 23:04:15 10° NW 23:08:33 27° W 23:09:34 25° WSW visible
14 Aug 4.7 20:39:05 10° N 20:43:33 28° NE 20:47:11 14° ESE visible
14 Aug 4.1 22:20:25 10° NNW 22:25:24 49° WSW 22:27:00 36° SSW visible
15 Aug 3.4 21:36:53 10° NNW 21:42:06 89° WSW 21:44:28 33° SSE visible
15 Aug 5.8 23:20:32 10° WNW 23:22:52 13° W 23:24:17 12° WSW visible
